Simultaneous Nadir Overpasses (SNOs) Predictions

Prediction of SNOs between NOAA-19 and TERRA Satellite Orbit:

Table of predicted SNOs for the next 14.0 days since TLE Epoch: 6/16/2022
Index Date (NOAA-19) Time (NOAA-19) Lat,Lon (NOAA-19) SZA (NOAA-19 ) Date (TERRA) Time (TERRA) Lat,Lon (TERRA) SZA (TERRA ) Distance(km) Time Diff (sec)
1 06/16/2022 14:56:45 -80.79, 171.79 120.75 06/16/2022 14:56:38 -80.78, 171.68 120.77 2.23 7
2 06/18/2022 20:29:46 80.79, -91.38 59.19 06/18/2022 20:30:17 80.80, -91.47 59.21 2.35 31
3 06/18/2022 21:20:40 -80.78, 76.06 120.80 06/18/2022 21:19:44 -80.80, 76.12 120.80 2.01 56
4 06/21/2022 02:53:42 80.79, 172.48 59.15 06/21/2022 02:53:24 80.78, 172.53 59.14 1.33 18
5 06/23/2022 08:26:32 -80.79, -90.71 120.85 06/23/2022 08:27:04 -80.79, -90.84 120.85 2.36 32
6 06/23/2022 09:17:37 80.79, 76.63 59.16 06/23/2022 09:16:30 80.79, 76.79 59.15 2.86 67
7 06/25/2022 13:59:33 80.80, 5.90 59.18 06/25/2022 14:00:42 80.82, 6.06 59.24 3.43 69
8 06/25/2022 14:50:27 -80.79, 173.44 120.80 06/25/2022 14:50:10 -80.79, 173.36 120.82 1.45 17
9 06/27/2022 20:23:28 80.80, -90.07 59.25 06/27/2022 20:23:49 80.78, -90.18 59.23 3.00 21



Historial Predications of SNOs between NOAA-19 and TERRA
